Change the Weather History Date:

Wednesday, October 23, 2013

  Actual Average Record
Temperature  
Mean Temperature 64 °F 64 °F  
Max Temperature 70 °F 70 °F 83 °F (2007)
Min Temperature 58 °F 57 °F 38 °F (1974)
Degree Days  
Heating Degree Days 1 3  
Month to date heating degree days 3 40  
Since 1 July heating degree days 7 43  
Cooling Degree Days 0 2  
Month to date cooling degree days 131 85  
Year to date cooling degree days 1967 1677  
Growing Degree Days 14 (Base 50)    
Moisture  
Dew Point 58 °F    
Average Humidity 78    
Maximum Humidity 100    
Minimum Humidity 55    
Precipitation  
Precipitation 0.51 in 0.18 in 2.05 in (1990)
Month to date precipitation 9.43 4.03  
Year to date precipitation 45.46 47.47  
Snow  
Snow 0.00 in - - ()
Month to date snowfall 0.0  
Since 1 July snowfall 0.0  
Snow Depth 0.00 in    
Sea Level Pressure  
Sea Level Pressure 29.74 in    
Wind  
Wind Speed 8 mph (West)    
Max Wind Speed 17 mph    
Max Gust Speed 25 mph    
Visibility 8 miles    
Events Rain    
T = Trace of Precipitation, MM = Missing Value Source: NWS Daily Summary

Daily Weather History Graph

Daily Weather History Graph

Search for Another Location

Airport or City:

Trip Planner

Search our weather history database for the weather conditions in past years. The results will help you decide how hot, cold, wet, or windy it might be!

Date:

Astronomy

Oct. 23, 2013 Rise Set
Actual Time 7:15 AM EDT 6:17 PM EDT
Civil Twilight 6:49 AM EDT 6:43 PM EDT
Nautical Twilight 6:20 AM EDT 7:12 PM EDT
Astronomical Twilight 5:50 AM EDT 7:42 PM EDT
Moon 9:51 PM EDT (10/23) 11:25 AM EDT (10/23)
Length of Visible Light 11h 53m
Length of Day
11h 01m
Waning Gibbous, 79% of the Moon is Illuminated
Oct 23
Waning Gibbous
Oct 26
Last Quarter
Nov 3
New
Nov 10
First Quarter
Nov 17
Full

Hourly Weather History & Observations

Time (EDT) Temp. Dew Point Humidity Pressure Visibility Wind Dir Wind Speed Gust Speed Precip Events Conditions
12:51 AM 64.0 °F 57.0 °F 78% 29.83 in 8.0 mi SSW 9.2 mph - 0.01 in Rain Light Rain
1:51 AM 61.0 °F 59.0 °F 93% 29.82 in 3.0 mi SW 4.6 mph - 0.07 in Rain Rain
2:14 AM 60.8 °F 59.0 °F 94% 29.81 in 4.0 mi WSW 3.5 mph - 0.03 in Rain Light Rain
2:35 AM 60.8 °F 59.0 °F 94% 29.80 in 2.5 mi SW 4.6 mph - 0.08 in Rain Rain
2:48 AM 60.8 °F 59.0 °F 94% 29.79 in 3.0 mi Variable 4.6 mph - 0.12 in Rain Rain
2:49 AM 60.1 °F 59.0 °F 96% 29.80 in 3.0 mi SSW 4.6 mph - 0.12 in Rain Rain
3:11 AM 60.8 °F 59.0 °F 94% 29.80 in 2.5 mi WSW 4.6 mph - 0.04 in Rain Rain
3:18 AM 60.8 °F 59.0 °F 94% 29.80 in 2.5 mi SW 5.8 mph - 0.06 in Rain Rain
3:25 AM 60.8 °F 59.0 °F 94% 29.79 in 3.0 mi SW 5.8 mph - 0.08 in Rain Rain
3:34 AM 60.8 °F 59.0 °F 94% 29.78 in 2.5 mi WSW 6.9 mph - 0.10 in Rain Rain
3:42 AM 60.8 °F 59.0 °F 94% 29.78 in 3.0 mi WSW 8.1 mph - 0.13 in Rain Rain
3:51 AM 60.1 °F 57.9 °F 93% 29.78 in 4.0 mi SW 6.9 mph - 0.15 in Rain Light Rain
4:20 AM 60.8 °F 59.0 °F 94% 29.77 in 4.0 mi SW 6.9 mph - 0.05 in Rain Rain
4:37 AM 60.8 °F 59.0 °F 94% 29.76 in 3.0 mi SW 5.8 mph - 0.09 in Rain Rain
4:51 AM 60.1 °F 59.0 °F 96% 29.75 in 5.0 mi SW 5.8 mph - 0.12 in Rain Light Rain
5:51 AM 61.0 °F 60.1 °F 97% 29.74 in 7.0 mi West 4.6 mph - 0.03 in Rain Light Rain
6:06 AM 60.8 °F 60.8 °F 100% 29.73 in 8.0 mi West 4.6 mph - 0.01 in Rain Light Rain
6:22 AM 60.8 °F 60.8 °F 100% 29.72 in 7.0 mi West 3.5 mph - 0.02 in Rain Light Rain
6:42 AM 60.8 °F 60.8 °F 100% 29.72 in 10.0 mi West 5.8 mph - 0.02 in Rain Light Rain
6:51 AM 61.0 °F 59.0 °F 93% 29.72 in 10.0 mi West 5.8 mph - 0.02 in   Overcast
7:19 AM 60.8 °F 60.8 °F 100% 29.71 in 10.0 mi West 3.5 mph - N/A   Overcast
7:31 AM 60.8 °F 60.8 °F 100% 29.71 in 10.0 mi West 4.6 mph - N/A   Overcast
7:51 AM 61.0 °F 60.1 °F 97% 29.71 in 10.0 mi West 4.6 mph - N/A   Overcast
8:10 AM 62.6 °F 60.8 °F 94% 29.71 in 10.0 mi West 4.6 mph - N/A   Overcast
8:20 AM 62.6 °F 60.8 °F 94% 29.71 in 10.0 mi West 6.9 mph - N/A   Overcast
8:30 AM 62.6 °F 60.8 °F 94% 29.71 in 10.0 mi West 5.8 mph - N/A   Overcast
8:47 AM 62.6 °F 60.8 °F 94% 29.71 in 10.0 mi West 3.5 mph - N/A   Scattered Clouds
8:51 AM 64.0 °F 62.1 °F 93% 29.71 in 10.0 mi Variable 6.9 mph - N/A   Scattered Clouds
9:51 AM 66.0 °F 61.0 °F 84% 29.69 in 10.0 mi West 8.1 mph - N/A   Partly Cloudy
10:34 AM 66.2 °F 60.8 °F 83% 29.70 in 10.0 mi West 6.9 mph - N/A   Mostly Cloudy
10:51 AM 66.9 °F 59.0 °F 76% 29.70 in 10.0 mi West 9.2 mph - N/A   Mostly Cloudy
11:30 AM 66.2 °F 60.8 °F 83% 29.69 in 10.0 mi West 15.0 mph 23.0 mph N/A   Overcast
11:48 AM 64.4 °F 60.8 °F 88% 29.69 in 10.0 mi West 9.2 mph 18.4 mph N/A   Overcast
11:51 AM 66.0 °F 60.1 °F 81% 29.69 in 10.0 mi West 11.5 mph 19.6 mph N/A   Mostly Cloudy
12:51 PM 64.9 °F 57.9 °F 78% 29.68 in 10.0 mi West 11.5 mph 20.7 mph N/A   Overcast
1:13 PM 66.2 °F 59.0 °F 78% 29.67 in 10.0 mi West 10.4 mph 20.7 mph N/A   Scattered Clouds
1:51 PM 66.9 °F 57.9 °F 73% 29.65 in 10.0 mi West 11.5 mph 19.6 mph N/A   Scattered Clouds
2:04 PM 68.0 °F 59.0 °F 73% 29.65 in 10.0 mi West 12.7 mph 20.7 mph N/A   Mostly Cloudy
2:12 PM 68.0 °F 57.2 °F 68% 29.64 in 10.0 mi West 11.5 mph 20.7 mph N/A   Scattered Clouds
2:51 PM 68.0 °F 57.9 °F 70% 29.63 in 10.0 mi West 13.8 mph 18.4 mph N/A   Clear
3:51 PM 69.1 °F 57.0 °F 65% 29.65 in 10.0 mi West 12.7 mph 24.2 mph N/A   Clear
4:51 PM 64.9 °F 55.0 °F 70% 29.70 in 10.0 mi NW 9.2 mph 20.7 mph N/A   Overcast
5:51 PM 64.0 °F 50.0 °F 60% 29.73 in 10.0 mi NW 10.4 mph 21.9 mph N/A   Clear
6:51 PM 63.0 °F 50.0 °F 63% 29.77 in 10.0 mi NW 6.9 mph - N/A   Clear
7:51 PM 62.1 °F 50.0 °F 65% 29.80 in 10.0 mi NW 5.8 mph - N/A   Clear
8:51 PM 62.1 °F 48.0 °F 60% 29.83 in 10.0 mi NW 8.1 mph - N/A   Clear
9:51 PM 61.0 °F 48.9 °F 64% 29.86 in 10.0 mi Variable 5.8 mph - N/A   Clear
10:51 PM 61.0 °F 45.0 °F 56% 29.88 in 10.0 mi NW 8.1 mph - N/A   Partly Cloudy
11:51 PM 60.1 °F 46.0 °F 60% 29.91 in 10.0 mi NNW 8.1 mph - N/A   Clear